#timestamp,LO_Frequency,Hit,StdDev 
1599822115.3,286046972.5,P
1599822135.1,286046972.8,P
1599822155.9,286046973.6,P
1599822175.7,286046971.3,Y
1599822195.5,286046999.3,P
1599822215.4,286046999.2,N
1599822235.2,286046999.4,N
1599822255.1,286046999.5,N
1599822256.0,286046999.5,N
1599822275.8,286046997.3,N
1599822295.6,286046997.9,N
1599822315.5,286046997.5,N
1599822335.3,286046997.5,N
1599822355.1,286046995.3,N
1599822375.9,286046995.8,N
1599822395.7,286046996.4,N
1599822415.6,286046994.3,N
1599822435.4,286046994.3,N
1599822455.2,286046992.2,N
1599822475.1,286046992.0,N
1599822476.0,286046992.0,N
1599822495.8,286046990.3,N
1599822515.6,286046991.1,N
1599822535.5,286046990.7,N
1599822555.3,286046991.3,N
1599822575.2,286046991.0,N
1599822595.9,286046991.6,N
1599822615.7,286046989.7,N
1599822635.6,286046989.1,N
1599822655.4,286046986.3,N
1599822675.2,286046987.3,N
1599822695.1,286046985.4,N
1599822696.0,286046985.4,N
1599822715.8,286046985.8,N
1599822735.7,286046984.0,Y
1599822755.5,286046991.9,P
1599822775.3,286046991.7,P
1599822795.2,286046992.2,P
1599822815.0,286046992.7,Y
1599822815.9,286046992.7,P
1599822835.8,286046998.1,P
1599822855.6,286046998.6,N
1599822875.4,286046999.1,N
1599822895.3,286046999.1,N
1599822915.1,286046996.8,N
1599822935.8,286046997.6,N
1599822955.7,286046998.0,N
1599822975.5,286046995.5,N
1599822995.4,286046995.6,N
1599823015.2,286046996.4,N
1599823035.0,286046993.8,N
1599823035.9,286046993.8,N
1599823055.8,286046993.9,N
1599823075.6,286046994.1,N
1599823095.4,286046994.2,N
1599823115.3,286046992.2,Y
1599823135.1,286046997.2,P
1599823155.9,286046996.8,P
1599823175.7,286046997.8,P
1599823195.5,286046995.0,Y
1599823215.4,286046999.4,P
1599823235.2,286046999.5,N
1599823255.1,286046996.6,N
1599823256.0,286046996.6,N
1599823275.8,286046997.1,N
1599823295.6,286046997.3,N
1599823315.5,286046998.0,N
1599823335.3,286046995.1,Y
1599823355.1,286046997.6,P
1599823375.9,286046995.4,P
1599823395.7,286046995.5,P
1599823415.6,286046995.8,Y
1599823435.4,286046998.7,P
1599823455.2,286046999.4,N
1599823475.1,286046996.6,N
1599823476.0,286046996.6,N
1599823495.8,286046999.6,N
1599823515.7,286046997.4,N
1599823535.5,286046997.3,N
1599823555.3,286046997.9,N
1599823575.2,286046997.7,N
1599823595.0,286046998.0,N
1599823595.9,286046998.0,N
1599823615.7,286046995.3,Y
1599823635.6,286046997.4,P
1599823655.4,286046997.5,P
1599823675.3,286046997.9,P
1599823695.1,286046995.1,Y
1599823715.8,286046999.1,P
1599823735.7,286046999.5,N
1599823755.5,286046997.1,P
1599823775.4,286046995.0,Y
1599823795.2,286046997.1,P
1599823815.0,286046996.7,P
1599823815.9,286046996.7,P
1599823835.8,286046997.3,Y
1599823855.6,286046998.3,P
1599823875.4,286046998.8,N
1599823895.3,286046999.0,N
1599823915.1,286046996.6,Y
1599823935.9,286046998.4,P
1599823955.7,286046998.3,P
1599823975.5,286046998.8,P
1599823995.4,286046997.0,Y
1599824015.2,286046998.2,P
1599824035.1,286046998.4,P
1599824036.0,286046998.4,P
1599824055.8,286046999.5,Y
1599824075.6,286046998.6,P
1599824095.5,286046998.1,P
1599824115.3,286047001.0,P
1599824135.1,286046998.3,N
1599824155.9,286046998.9,N
1599824175.7,286046999.5,N
1599824195.6,286046996.7,Y
1599824215.4,286046997.3,P
1599824235.2,286046998.0,N
1599824255.1,286046998.0,N
1599824256.0,286046998.0,Y
1599824275.8,286046999.3,P
1599824295.7,286046996.5,P
1599824315.5,286046997.1,N
1599824335.3,286046997.8,N
1599824355.2,286046995.0,Y
1599824375.0,286046999.1,P
1599824375.9,286046999.1,N
1599824395.8,286046999.6,N
1599824415.6,286046997.4,Y
1599824435.4,286046997.3,P
1599824455.3,286046995.0,P
1599824475.1,286046997.0,N
1599824495.8,286046995.0,Y
1599824515.7,286047001.2,P
1599824535.5,286046999.3,N
1599824555.4,286046999.4,N
1599824575.2,286046999.4,N
1599824595.0,286046999.1,N
1599824595.9,286046999.1,N
1599824615.8,286046997.7,N
1599824635.6,286046994.9,Y
1599824655.5,286046996.6,P
1599824675.3,286046996.8,N
1599824695.1,286046997.8,N
1599824715.9,286046995.6,Y
1599824735.7,286046996.7,P
1599824755.5,286046997.3,P
1599824775.4,286046997.4,P
1599824795.2,286046997.3,Y
1599824815.1,286047001.0,P
1599824816.0,286047001.0,N
1599824835